Погода в Багдарине

Погода в Багдарине : погода сейчас, прогноз погоды и архив. Всё, что Вы хотите узнать о погоде в Багдарине!

Поиск расширенной информации на нашем сайте:

Другие новости

Новости СМИ2

Главная страница сайта

Новости сайта

02.10.2013

Напоминаем, что на нашем новом сайте вы можете получить высокодетализированные прогнозы погоды по пунктам России, СНГ и мира (включающие важные для авиации метеовеличины, такие как направление и скорость ветра, видимость, явления погоды, количество и форма облачности, нижняя и верхняя граница облачности), а также ознакомиться с разнообразными материалами по авиационной метеорологии и подборкой полезных ссылок на эту тему.

Сайт Метеоцентр.Азия посвящён разработке технологий оптимизации авиаметеорологического обслуживания, включая проектирование и перспективное создание нескольких автоматизированных авиаметеорологических систем:
- система выпуска высокодетальных прогностических карт явлений погоды для нижнего воздушного пространства по России и ближнему зарубежью;
- система верификации прогнозов TAF (выпускаемых синоптиками официальных АМСГ РФ и ближнего зарубежья) и AUTOTAF (выпускаемых сайтом Метеоцентр.Азия) - выявление ошибок, онлайн-сопоставление с фактической погодой METAR, автоматическое внесение коррективов в прогнозы при резком отклонении фактической погоды от прогноза, подсчёт оправдываемости прогнозов по элементам и в целом;
- система обработки, анализа и отображения авиаметеорологической информации для применения провайдерами метеорологической информации.

Рекомендуем: Работа автослесарь автоэлектрик автомеханик пушкин.

Погода в Багдарине - сегодня

Время (UTC), дата Ветер
(°,м/с) 
Видим.   Явления Облачность Т
(°С)
Тd
(°С)
f(%) Тe
(°С)
Pmin
(гПа)
dP
(гПа)
Po
(мм)
O2
(г/м3)
Тmin Tmax R s Состояние
почвы
12 21.04.17 330 (СЗ) 5{11}  н/о    6/3 1000 м верхняя 
[Sc diur, vesp|Ci fib]
+0.6 -13.5 34 -2  1009.3  1.7  677  273    +6.4       
15 21.04.17 320 (СЗ) 2{11}  н/о    ясно 
-2.3 -15.2 36 -3  1011.2  0.6  678  276           
18 21.04.17 140 (ЮВ) н/о    ясно 
-10 -14.4 70 -10  1014.4  0.1  678  284           
21 21.04.17 320 (СЗ) н/о    4/0 средняя, верхняя 
[Ac lent|Ci fib]
-5.3 -13 55 -8  1013  0.6  678  280           
00 22.04.17 340 (С) 7-12{14}  20000 м    1/0 верхняя 
[Ci fib]
-1.5 -14.3 37 -6  1012.4  0.9  679  276  -10.9  +0.5       
03 22.04.17 340 (С) 6-12{14}  20000 м    3/1 1000 м верхняя 
[Cu hum|Ci fib]
+2 -16.5 24 -1  1010.6  -0.4  678  272           
06 22.04.17 360 (С) 5-12{16}  20000 м    10/3 1000 м верхняя 
[Cu hum|Ci fib]
+2.4 -16.9 22 1010.1  -0.3  678  272           
09 22.04.17 360 (С) 5-10{14}  20000 м    10/3 1000 м верхняя 
[Cu med, cong|Cs]
+1.8 -17.4 23 -1  1011  0.6  679  273           
12 22.04.17 340 (С) 5-10{14}  н/о    10/0 средняя, верхняя 
[Ac As|Ci fib]
-1 -16.9 29 -4  1013.2  679  276    +2.9       
15 22.04.17 340 (С) 6-12{13}  н/о    10/0 средняя 
[Ac As]
-2.2 -15.4 36 -6  1012.3  -1.3  678  277           
18 22.04.17 340 (С) 6-11{12}  н/о    10/0 средняя 
[As op]
-2.6 -14.9 38 -7  1011.2  -1.1  678  277           
21 22.04.17 350 (С) 4{14}  н/о  слаб. снег  10/0 средняя 
[As op]
-5 -8.3 78 -8  1012.4  0.2  678  279           
00 23.04.17 350 (С) 10 км  слаб. снег  10/0 средняя 
[As op]
-3.6 -8.8 67 -5  1012.3  0.4  678  278  -5.3    равномерный
сухой снег
100% 
03 23.04.17 350 (С) 6-10{12}  6000 м  слаб. снег  10/0 средняя 
[As op]
-2.5 -7.9 66 -6  1012.4  0.6  678  277           
06 23.04.17 350 (С) 5-10{12}  20000 м  в посл. час снег  10/0 средняя 
[As op]
+0.2 -6.3 62 -3  1012.3  0.9  679  274           
09 23.04.17 330 (СЗ) 3{12}  20000 м  в посл. час снег  10/0 средняя 
[As op]
+0.7 -6.2 60 -1  1013.7  1.4  680  274           
12 23.04.17 330 (СЗ) 3{10}  н/о  {снег}  10/3 1000 м средняя 
[Sc|As op]
-0.4 -8.1 56 -2  1017.2  2.8  682  276    +1.3  0.1     
15 23.04.17 340 (С) н/о    10/0 средняя 
[As op]
-0.4 -8.3 55 -2  1019.3  1.8  684  277           
18 23.04.17 350 (С) н/о    10/0 средняя 
[As op]
-1 -8.4 57 -3  1021.3  1.6  685  278           
21 23.04.17 330 (СЗ) н/о    10/0 средняя 
[Ac As]
-1.2 -8.2 59 -2  1023.1  1.5  686  278           
00 24.04.17 340 (С) 20000 м    6/3 1000 м средняя, верхняя 
[Sc|Ac lent|Ci fib]
+0.5 -9.3 48 -1  1023.9  1.3  687  277  -1.5         
03 24.04.17 330 (СЗ) 20000 м    10/4 1000 м верхняя 
[Cu med, cong|Ci fib]
+5.9 -9.2 33 +5  1021.6  687  272           
06 24.04.17 340 (С) 20000 м    10/8 1000 м верхняя 
[Cu med, cong|Ci fib]
+7.8 -10.2 27 +8  1020.5  -0.4  687  270           
09 24.04.17 060 (СВ) 5-12{12}  20000 м    10/8 1000 м кучево-дожд., верхняя 
[Cb cap|Ci fib]
+7.5 -9.6 29 +6  1020.8  0.2  687  270           
12 24.04.17 050 (СВ) 2{12}  н/о    10/4 1000 м верхняя 
[Sc|Ci fib]
+5.7 -9.1 34 +5  1022.7  688  272    +8.9       
Время (UTC), дата Ветер
(°,м/с) 
Видим.   Явления Облачность Т
(°С)
Тd
(°С)
f(%) Тe
(°С)
Pmin
(гПа)
dP
(гПа)
Po
(мм)
O2
(г/м3)
Тmin Tmax R s Состояние
почвы

Для получения пояснительной информации подведите курсор к названию столбца.

ПОГОДА в Багдарине - архив

Всё, что Вы хотите узнать о погоде в Багдарине - удобно и подробно!

Выберите нужную дату (начиная с 1 января 2015* года) и нажмите кнопку "Найти".
Будут отображены архивные сводки погоды по пункту Багдарин, начиная с указанной даты.


Отображать данные в формате CSV (для использования в таблицах Excel)


Внимание! Наш архив погоды предназначен исключительно для личного некоммерческого использования в познавательных целях. Если Вам необходимы официальные справки о состоянии погоды (для производственных, юридических, коммерческих и т.п. целей), обращайтесь в органы Росгидромета.

*Примечание: данная дата относится к архиву по метеостанциям СССР (Россия, СНГ, Балтия).
Архив по метеостанциям Зарубежной Европы и Азии (кроме Китая) хранится 10 дней, по другим регионам земного шара (Китай, Африка, Америка, Австралия, Океания) - 1 день.

Багдарин - район местоположения метеостанции


Название, широта, долгота, высота метеостанции:
Багдарин 54.5°ш. 113.6°д. 903 м над ур. моря [Российская Федерация]

Дополнительная информация

В oтличие oт бoльшинства пoгoдных сайтoв мы публикуем пoдрoбную метеoинфoрмацию в детальнoм прoфессиoнальнoм фoрмате.

Характеристики температуры и влажнoсти вoздуха измеряются на высoте 2 м в тени вдали oт зданий и деревьев.
Скoрoсть ветра измеряется на высoте 10 м (на урoвне рoста челoвека скoрoсть ветра ниже в 1.5-2 раза). Если метеoстанция нахoдится в гoрoде или в лесу, тo скoрoсть ветра занижена на 2-4 м/с пo сравнению с oткрытым местoм. Скoрoсть ветра над акватoриями крупных рек и oзёр, а также на вершинах хoлмoв на 2-5 м/с выше, чем в oбычных услoвиях.
Атмoсфернoе давление в разных тoчках местнoсти мoжет значительнo oтличаться oт давления на метеoстанции, в зависимoсти oт услoвий рельефа (при пoдъёме на 10 м давление пoнижается примернo на 1 мм рт.ст.).